Погода в Ереване

Погода в Ереване : погода сейчас, прогноз погоды и архив. Всё, что Вы хотите узнать о погоде в Ереване!

Поиск расширенной информации на нашем сайте:

Другие новости

Новости СМИ2

Главная страница сайта

Новости сайта

03.07.2017

Напоминаем, что на нашем специализированном сайте Метеоцентр.Азия вы можете получить высокодетализированные автоматические прогнозы погоды по пунктам России, СНГ и мира в авиационном формате (включающие направление и скорость ветра, видимость, явления погоды, количество и форму облачности, нижнюю и верхнюю границу облачности).

Рекомендуем: Порекомендовали элькарнитин цена и я похудела на 10 кг!

Погода в Ереване - сегодня

Время (UTC), дата Ветер
(°,м/с) 
Видим.   Явления Облачность Т
(°С)
Тd
(°С)
f(%) Тe
(°С)
Pmin
(гПа)
dP
(гПа)
Po
(мм)
O2
(г/м3)
Тmin Tmax R s Состояние
почвы
15 18.10.17 тихо ()   20000 м    ясно 
+12.4 +4.5 59 +12  1022  0.1  693  266           
18 18.10.17 050 (СВ) 20000 м    ясно 
+11.3 +4 61 +11  1023.3  0.7  694  268    +18.8       
21 18.10.17 260 (З) 20000 м    ясно 
+6.4 +2 73 +7  1025.2  0.1  694  273           
00 19.10.17 тихо ()   20000 м    ясно 
+3.3 +1.8 90 +3  1026.4  694  276           
03 19.10.17 010 (С) 20000 м  дымка  ясно 
+1.6 +0.5 92 +2  1027.3  0.3  694  278           
06 19.10.17 160 (Ю) 20000 м    ясно 
+9.6 +3.4 65 +11  1025.2  0.8  694  270  +1.4         
09 19.10.17 160 (Ю) 20000 м    4/3 1000 м кучево-дожд., средняя 
[Cb cap|Ac cast]
+17.2 +2.5 37 +18  1020.7  -1.6  693  262           
12 19.10.17 220 (ЮЗ) 20000 м    1/1 1000 м 
[Sc diur, vesp]
+19.2 +4.5 38 +21  1018.3  -1.6  692  260           
15 19.10.17 290 (З) 20000 м    ясно 
+13.6 +6.1 60 +15  1019.6  -0.5  692  264           
18 19.10.17 040 (СВ) 20000 м    ясно 
+10.4 +3 60 +11  1021.4  0.5  692  268    +20.1       
21 19.10.17 090 (В) 20000 м    ясно 
+8.3 +2.7 68 +8  1022.1  -0.1  692  270           
00 20.10.17 360 (С) 20000 м    ясно 
+5.1 +1.6 78 +6  1022.9  -0.3  692  273           
03 20.10.17 340 (С) 4000 м  дымка  ясно 
+2 +0.4 89 +3  1024.6  0.4  692  277           
06 20.10.17 180 (Ю) 4000 м  дымка  ясно 
+9.6 +5.1 73 +11  1022.5  0.8  693  269  +1.4         
09 20.10.17 210 (ЮЗ) 20000 м    ясно 
+17 +6.1 49 +18  1018.3  -1.4  692  261           
12 20.10.17 тихо ()   20000 м    ясно 
+19.7 +4.3 36 +20  1015.8  -1.5  690  259           
15 20.10.17 360 (С) 20000 м    ясно 
+11.8 +6.1 68 +13  1018.5  690  266           
18 20.10.17 340 (С) 20000 м    ясно 
+8.8 +4.3 73 +9  1020.2  -0.6  691  269    +20.4       
21 20.10.17 330 (СЗ) 20000 м    ясно 
+7.1 +3.8 80 +8  1021.1  0.2  691  271           
00 21.10.17 тихо ()   20000 м    ясно 
+3.4 +1.3 86 +3  1022.7  0.1  691  275           
03 21.10.17 тихо ()   20000 м    ясно 
+2 +0.1 87 +2  1023.3  691  276           
06 21.10.17 тихо ()   4000 м  мгла  ясно 
+9 +4.8 75 +9  1020.9  0.4  691  269  +1.7         
09 21.10.17 тихо ()   20000 м    ясно 
+17.2 +4.3 42 +17  1016.3  -1.6  690  261           
12 21.10.17 130 (ЮВ) 20000 м    ясно 
+19.8 +5.1 38 +21  1012.7  -2.4  688  258           
15 21.10.17 360 (С) 20000 м    ясно 
+12.3 +5.6 64 +14  1014.7  -0.5  688  264           
Время (UTC), дата Ветер
(°,м/с) 
Видим.   Явления Облачность Т
(°С)
Тd
(°С)
f(%) Тe
(°С)
Pmin
(гПа)
dP
(гПа)
Po
(мм)
O2
(г/м3)
Тmin Tmax R s Состояние
почвы

Для получения пояснительной информации подведите курсор к названию столбца.

ПОГОДА в Ереване - архив

Всё, что Вы хотите узнать о погоде в Ереване - удобно и подробно!

Выберите нужную дату (начиная с 1 января 2015* года) и нажмите кнопку "Найти".
Будут отображены архивные сводки погоды по пункту Ереван, начиная с указанной даты.


Отображать данные в формате CSV (для использования в таблицах Excel)


Внимание! Наш архив погоды предназначен исключительно для личного некоммерческого использования в познавательных целях. Если Вам необходимы официальные справки о состоянии погоды (для производственных, юридических, коммерческих и т.п. целей), обращайтесь в органы Росгидромета.

*Примечание: данная дата относится к архиву по метеостанциям СССР (Россия, СНГ, Балтия).
Архив по метеостанциям Зарубежной Европы и Азии (кроме Китая) хранится 10 дней, по другим регионам земного шара (Китай, Африка, Америка, Австралия, Океания) - 1 день.

Ереван - район местоположения метеостанции


Название, широта, долгота, высота метеостанции:
Ереван (Звартноц) 40.1°ш. 44.4°д. 865 м над ур. моря [Армения]

Дополнительная информация

В oтличие oт бoльшинства пoгoдных сайтoв мы публикуем пoдрoбную метеoинфoрмацию в детальнoм прoфессиoнальнoм фoрмате.

Характеристики температуры и влажнoсти вoздуха измеряются на высoте 2 м в тени вдали oт зданий и деревьев.
Скoрoсть ветра измеряется на высoте 10 м (на урoвне рoста челoвека скoрoсть ветра ниже в 1.5-2 раза). Если метеoстанция нахoдится в гoрoде или в лесу, тo скoрoсть ветра занижена на 2-4 м/с пo сравнению с oткрытым местoм. Скoрoсть ветра над акватoриями крупных рек и oзёр, а также на вершинах хoлмoв на 2-5 м/с выше, чем в oбычных услoвиях.
Атмoсфернoе давление в разных тoчках местнoсти мoжет значительнo oтличаться oт давления на метеoстанции, в зависимoсти oт услoвий рельефа (при пoдъёме на 10 м давление пoнижается примернo на 1 мм рт.ст.).